www.pogodaiklimat.ru
ПОГОДА в Ниоро-Дю-Сахель
Время
(UTC), дата
21 23.05
00 24.05
03 24.05
06 24.05
09 24.05
12 24.05
15 24.05
18 24.05
21 24.05
00 25.05
03 25.05
06 25.05
09 25.05
12 25.05
15 25.05
18 25.05
21 25.05
00 26.05
03 26.05
06 26.05
09 26.05
12 26.05
15 26.05
18 26.05
21 26.05
00 27.05
03 27.05
06 27.05
09 27.05
12 27.05
15 27.05
18 27.05
21 27.05
00 28.05
03 28.05
06 28.05
09 28.05
12 28.05
15 28.05
18 28.05
21 28.05
00 29.05
03 29.05
06 29.05
09 29.05
12 29.05
15 29.05
18 29.05
21 29.05
00 30.05
03 30.05
06 30.05
09 30.05
12 30.05
15 30.05
18 30.05
Ветер
(напр.,м/с)
Видим. Явления Облачность Т
(С)
Тd
(С)
f
(%)
Тe
(С)
Тes
(С)
Комфортность P
(гПа)
Po
(гПа)
Тmin
(С)
Tmax
(С)
R
(мм)
R24
(мм)
S
(см)
СВ 1 10 км ясно +36.9 +7.3 16 +35 +35 очень
жарко
1009.1 982.6
ЮВ 2 10 км ясно +34.4 +1.6 13 +31 +31 жарко 1009.9 983.5
В 1 10 км ясно +31.0 -0.4 13 +28 +28 жарко 1008.9 982.4
штиль 0 10 км ясно +26.9 +4.7 24 +26 +26 жарко 1010.1 983.4 +26.8
В 3 10 км ясно +34.0 -2.9 9 +30 +37 жарко 1012.0 985.3
СВ 4 8000 м пыль ясно +39.0 +1.5 10 +35 +50 очень
жарко
1011.5 985.0
СВ 3 6000 м пыль ясно +40.1 +1.2 9 +36 +49 очень
жарко
1008.9 982.3
С 4 6000 м пыль ясно +39.2 -5.1 6 +35 +36 очень
жарко
1008.3 981.5 +41.0
СВ 2 10 км ясно +34.0 +4.1 15 +31 +31 жарко 1010.1 983.4
штиль 0 6000 м пыль ясно +29.5 +4.6 21 +28 +28 жарко 1010.9 984.2
штиль 0 6000 м пыль ясно +27.0 +3.3 22 +26 +26 жарко 1009.8 983.0
штиль 0 10 км ясно +23.8 +1.0 22 +23 +23 комфорт 1010.5 983.5 +23.8
СВ 4 10 км ясно +33.0 -4.0 9 +29 +35 жарко 1011.7 984.9
В 4 10 км ясно +39.3 -2.4 7 +35 +49 очень
жарко
1011.1 984.4
СВ 3 10 км ясно +40.7 +0.2 8 +37 +49 очень
жарко
1008.5 981.8
СВ 2 10 км ясно +40.4 +2.6 10 +37 +38 очень
жарко
1007.6 980.8 +41.4
С 2 10 км 3/0
[Ci sp]
+34.4 +2.8 14 +31 +31 жарко 1009.2 982.5
штиль 0 10 км ясно +30.0 +5.9 22 +29 +29 жарко 1010.0 983.3
штиль 0 10 км ясно +27.5 +1.1 18 +25 +25 комфорт 1009.1 982.4
В 1 10 км ясно +26.5 +0.3 18 +25 +25 комфорт 1010.3 983.5 +25.0
В 3 10 км 4/0
[Ac lent Ci sp]
+34.3 -1.9 10 +31 +37 жарко 1011.2 984.5
В 4 10 км 8/0
[Ac lent Ci sp]
+40.7 -2.5 7 +37 +44 очень
жарко
1010.6 984.0
В 4 10 км 6/5 900 м
[Frnb Ac lent]
+42.0 +2.7 9 +39 +43 очень
жарко
1008.3 981.7
СВ 3 10 км 6/6 900 м
[Sc]
+41.0 +7.7 13 +39 +39 очень
жарко
1007.4 980.7 +42.4
В 1 10 км 6/3 900 м
[Sc Ci sp]
+37.7 +6.4 15 +35 +35 очень
жарко
1008.6 982.1
В 2 10 км 8/0
[Ac lent Ci sp]
+35.5 +14.0 28 +36 +36 очень
жарко
1010.0 983.6
В 8 10 км 5/0
[Ci sp]
+32.8 +18.3 42 +37 +37 очень
душно
1009.5 983.1
Ю 9 10 км 9/0
[Ac lent Ci sp]
+30.5 +17.4 45 +34 +34 очень
душно
1010.6 984.0 +30.0
Ю 8 6000 м пыльный позёмок 9/0
[Ac lent]
+31.0 +18.4 47 +36 +36 очень
душно
1012.5 985.7
Ю 6 10 км 6/0
[Ac lent]
+38.0 +13.2 23 +38 +42 очень
жарко
1011.7 985.2
Ю 6 10 км 8/0
[Ac lent]
+39.2 +10.9 18 +38 +40 очень
жарко
1009.7 983.2
Ю 4 10 км 8/0
[Ac lent]
+38.6 +10.1 18 +37 +37 очень
жарко
1009.3 982.6 +40.0
Ю 2 10 км 5/0
[Ac lent]
+35.8 +13.7 27 +37 +37 душно 1011.1 984.3
штиль 0 10 км 8/0
[Ac lent]
+34.0 +14.2 30 +35 +35 очень
жарко
1011.1 984.5
Ю 2 10 км 5/0
[Ac lent]
+33.5 +15.2 33 +35 +35 душно 1009.9 983.4
Ю 2 10 км 8/0
[Ac lent]
+32.3 +16.2 38 +35 +35 очень
душно
1010.4 983.8 +32.3
ЮЗ 3 10 км 9/0
[Ac lent]
+34.6 +16.1 33 +37 +39 очень
душно
1012.0 985.3
Ю 4 10 км ясно +39.8 +14.3 22 +40 +54 опасность
солнечного
удара
1010.8 984.3
ЮВ 3 10 км 8/1 900 м
[Cu hum Ac lent Ci sp]
+40.5 +13.3 20 +40 +47 очень
жарко
1008.2 981.8
В 3 10 км 8/1 900 м
[Cu hum Ac lent Ci sp]
+40.6 +12.5 19 +40 +41 очень
жарко
1007.6 981.1 +42.0
Ю 3 10 км 8/0
[Ac lent Ci sp]
+38.2 +13.1 22 +38 +38 очень
жарко
1008.8 982.3
Ю 3 10 км 10/0
[Ac lent]
+37.0 +14.0 25 +37 +37 очень
жарко
1009.1 982.8
Ю 2 10 км 10/0
[Ac lent]
+36.0 +14.8 28 +37 +37 душно 1008.0 981.7
Ю 4 10 км 10/0
[Ac lent]
+34.5 +13.6 28 +35 +35 очень
жарко
1008.4 982.0 +34.5
ЮЗ 3 3000 м пыль 8/0
[Ac As]
+37.5 +14.8 26 +39 +42 очень
душно
1009.4 983.0
СВ 2 4000 м пыль 9/0
[Ac As]
+40.8 +13.6 20 +41 +49 опасность
перегрева
1008.1 981.8
СВ 2 4000 м пыль 8/0
[Ac As Ci sp]
+42.8 +13.6 18 +43 +52 опасность
перегрева
1005.4 979.2
В 2 4000 м пыль 9/0
[Ac lent Ci sp]
+41.6 +13.8 20 +42 +43 опасность
перегрева
1004.0 977.8 +43.1
Ю 8 4000 м зарница 9/3 900 м
[Cb cap Ac lent Ci sp]
+35.5 +17.6 35 +39 +39 очень
душно
1006.9 980.5
Ю 5 8000 м пыль 9/0
[Ac As]
+34.6 +18.7 39 +39 +39 очень
душно
1007.7 981.3
Ю 6 6000 м зарница 9/1 1200 м
[Cb cap Ac As]
+29.0 +19.9 58 +35 +35 очень
душно
1009.1 982.6
ЮЗ 7 10 км гроза без осадков 10/3 900 м
[Cb cap Ac As]
+27.5 +19.7 62 +33 +33 очень
душно
1008.6 982.0 +25.6 1 1
ЮЗ 5 10 км в посл. час гроза 9/1 900 м
[Cu hum Ac lent Ci sp]
+28.4 +20.9 64 +36 +38 очень
душно
1011.8 984.6
ЮЗ 5 10 км 9/0
[Ac lent Ci sp]
+35.0 +19.6 41 +41 +49 опасность
перегрева
1010.1 983.4
СЗ 2 10 км 9/4 900 м
[Sc Ac lent Ci fib]
+39.2 +17.4 28 +42 +47 опасность
перегрева
1007.8 981.1
С 2 10 км 8/5 900 м
[Sc Ac lent]
+38.0 +17.5 30 +41 +41 опасность
перегрева
1007.4 980.6 +40.0
Местоположение метеостанции Ниоро-Дю-Сахель (Мали): широта 15.23 долгота -9.35 высота над уровнем моря 237 м.
В архиве по умолчанию представлена погода в Ниоро-Дю-Сахель за последнюю неделю. Архивные данные за месяц целиком и за предыдущие месяцы, начиная с января 2011 года, Вы можете получить, выбрав интересующий диапазон дат из раскрывающегося списка и нажав кнопку "Найти!".
*Определитесь, кто Вы:
Внимание! Время в таблицах - всемирное. Для получения местного времени необходимо прибавить поправку, которая равна 0 ч.
Смотрите также архив погоды в соседних городах и на ближайших метеорологических станциях:
Партнеры нашего сайта:      
Пояснения к столбцам:
  • Ветер - указаны скорость ветра в м/с - средняя за 10 мин, порывы в срок и между сроками (в фигурных скобках) и направление, откуда дует ветер: С - северный,
  • СВ - северо-восточный, В - восточный, ЮВ - юго-восточный, Ю - южный, ЮЗ - юго-западный, З - западный, СЗ - северо-западный.
  • Видимость - горизонтальная дальность видимости в метрах или километрах. При видимости от 1 до 10 км при отсутствии осадков обычно наблюдается дымка, при ухудшении видимости до 1 км и менее - туман. В сухую погоду видимость может ухудшаться дымом, пылью или мглою.
  • Явления - указаны атмосферные явления, наблюдавшиеся в срок или в последний час перед сроком; фигурными скобками обозначены явления, наблюдавшиеся между сроками (за 1-3 часа до срока); квадратными скобками обозначены град или гололедные отложения с указанием их диаметра в мм.
  • Облачность - указаны через наклонную черту общая и нижняя облачность в баллах и высота нижней границы облаков в метрах; квадратными скобками обозначены формы облаков: Ci - перистые, Cs - перисто-слоистые, Cc - перисто-кучевые, Ac - высококучевые, As - высокослоистые, Sc - слоисто-кучевые, Ns - слоисто-дождевые, Cu - кучевые, Cb - кучево-дождевые. Подробнее классификацию облаков см. в Атласе облаков (PDF).
  • T - Температура воздуха - температура, измеренная на высоте 2 м над землей.
  • Td - Температура точки росы - температура, при понижении до которой содержащийся в воздухе водяной пар достигнет насыщения.
  • f - Относительная влажность воздуха - влажноcть воздуха, измеренная на высоте 2 м над землей.
  • Te - Эффективная температура - температура, которую ощущает одетый по сезону человек в тени. Характеристика душности погоды. При расчете учитывается влияние влажности воздуха и скорости ветра на теплоощущения человека.
  • Tes - Эффективная температура на солнце - температура, которую ощущает человек, с поправкой на солнечный нагрев. Характеристика знойности погоды. Зависит от высоты солнца над горизонтом, облачности и скорости ветра. Ночью, в пасмурную погоду, а также при ветре 12 м/с и более поправка равна нулю.
  • P - Атмосферное давление - приведенное к уровню моря атмосферное давление.
  • Po - Атмосферное давление - измеренное на уровне метеостанции атмосферное давление.
  • Tmin - Минимальная температура - минимум температуры воздуха на высоте 2 м над землей.
  • Tmax - Максимальная температура - максимум температуры воздуха на высоте 2 м над землей.
  • R - Количество осадков - Количество выпавших осадков за период времени, мм. При наведении курсора мыши на число - период времени, за который выпало указанное количество осадков.
  • R24 - Количество осадков - Количество выпавших осадков за 24 часа, мм.
  • S - Снежный покров - Высота снежного покрова, см. При наведении курсора мыши на число - состояние снежного покрова и степень покрытия местности в баллах.